Location: Wells
(51.2093°N, 2.6446°W)
Time: 08:42:42
(UTC+01:00)

SO-50 - Pass Details

Date: 20 March 2026
Orbit: 567 x 673 km, 64.6° (Epoch: 17 April)

Event Time Altitude Azimuth Distance (km) Brightness Sun altitude
Rises 19:45:57 0° 277° (W) 2,985 ? -13.5°
Reaches altitude 10° 19:48:48 10° 294° (WNW) 2,089 ? -13.9°
Maximum altitude 19:52:20 20° 343° (NNW) 1,532 ? -14.4°
Drops below altitude 10° 19:55:55 10° 31° (NNE) 2,114 ? -15.0°
Enters shadow 19:58:36 - 47° (NE) 2,962 ? -15.4°
